Folgueroles





Hora UTC 21:20
Temperatura 1.0 ºC
Humitat 89.0 %
Pressió 1002.9 hPa
Pluja 0.4 mm
Velocitat vent 1.6 km/h
Direcció vent SE

Dades diàries 2021-11-27



Hora UTC (hivern +1h; estiu +2h)
Temperatura (ºC) Humitat (%) Pressió (hPa) Velocitat vent (km/h) Precipitació (mm)
Hora UTC Aire Humitat Pressió Vel. Dir. Vel. Max Dir. Intent. màx 5 min.
00:05 4.2 90.0 1004.3 0.0 NNW 0.0 0.0
00:10 4.2 90.0 1004.2 0.0 NNW 0.0 0.0
00:15 4.1 90.0 1004.1 0.0 NNW 0.0 0.0
00:20 4.0 90.0 1004.0 0.0 NNW 0.0 0.0
00:25 3.9 90.0 1003.8 0.0 NNW 0.0 0.0
00:30 3.9 90.0 1003.9 0.0 NNW 0.0 0.0
00:35 3.9 90.0 1003.9 0.0 NNW 0.0 0.0
00:40 3.8 90.0 1003.8 0.0 NNW 0.0 0.0
00:45 3.8 90.0 1003.8 0.0 NNW 0.0 0.0
00:50 3.8 90.0 1003.7 0.0 NNW 0.0 0.0
00:55 3.8 90.0 1003.7 0.0 NNW 0.0 0.0
01:00 3.8 90.0 1003.6 0.0 NNW 0.0 0.0
01:05 3.7 90.0 1003.6 0.0 NNW 0.0 0.0
01:10 3.7 90.0 1003.5 0.0 NNW 0.0 0.0
01:15 3.6 90.0 1003.6 0.0 WNW 0.0 0.0
01:15 3.6 90.0 1003.5 0.0 WNW 0.0 0.0
01:20 3.5 90.0 1003.4 0.0 WNW 0.0 0.0
01:25 3.3 89.0 1003.3 0.0 WNW 0.0 0.0
01:30 3.3 89.0 1003.3 0.0 WNW 0.0 0.0
01:35 3.1 89.0 1003.2 0.0 WNW 0.0 0.0
01:40 3.0 89.0 1003.1 0.0 WNW 0.0 0.0
01:45 2.9 89.0 1003.1 0.0 WNW 0.0 0.0
01:50 2.8 89.0 1003.2 0.0 WNW 0.0 0.0
01:55 2.8 90.0 1003.0 1.6 WNW 6.4 0.0
02:00 2.7 90.0 1003.0 4.8 W 11.3 0.0
02:05 2.7 90.0 1002.9 17.7 WNW 17.7 0.0
02:10 2.8 89.0 1002.8 0.0 WNW 17.7 0.0
02:15 2.7 88.0 1002.9 4.8 WNW 12.9 0.0
02:20 2.8 88.0 1002.8 4.8 WNW 12.9 0.0
02:25 2.7 88.0 1002.7 4.8 W 12.9 0.0
02:30 2.7 87.0 1002.6 4.8 W 14.5 0.0
02:40 2.7 87.0 1002.7 4.8 WNW 14.5 0.0
02:45 2.7 87.0 1002.6 6.4 W 14.5 0.0
02:50 2.7 87.0 1002.5 9.7 W 12.9 0.0
02:55 2.6 88.0 1002.3 6.4 W 12.9 0.0
03:00 2.6 88.0 1002.3 3.2 W 9.7 0.0
03:05 2.5 88.0 1002.3 3.2 W 8.0 0.0
03:10 2.4 89.0 1002.2 1.6 W 9.7 0.0
03:15 2.4 89.0 1002.1 3.2 W 11.3 0.0
03:20 2.4 89.0 1002.0 0.0 W 11.3 0.0
03:25 2.4 89.0 1001.9 1.6 W 6.4 0.0
03:30 2.4 89.0 1001.7 0.0 W 3.2 0.0
03:35 2.4 90.0 1001.8 1.6 W 3.2 0.0
03:40 2.4 90.0 1001.7 3.2 W 9.7 0.2
03:40 2.4 90.0 1001.6 6.4 W 11.3 0.0
03:50 2.4 90.0 1001.5 1.6 W 11.3 0.0
03:55 2.3 90.0 1001.7 1.6 W 11.3 0.0
04:00 2.3 90.0 1001.7 1.6 W 11.3 0.0
04:05 2.3 90.0 1001.6 0.0 W 3.2 0.0
04:10 2.3 90.0 1001.7 0.0 W 3.2 0.0
04:15 2.3 90.0 1001.6 4.8 WNW 4.8 0.0
04:20 2.2 90.0 1001.5 1.6 NW 4.8 0.0
04:25 2.2 90.0 1001.4 3.2 N 8.0 0.0
04:30 2.2 90.0 1001.3 1.6 N 8.0 0.0
04:35 2.2 90.0 1001.1 3.2 N 4.8 0.0
04:40 2.1 90.0 1001.0 0.0 N 4.8 0.0
04:45 2.1 90.0 1001.1 0.0 N 4.8 0.0
04:50 2.1 90.0 1000.9 0.0 N 0.0 0.0
04:55 2.1 90.0 1000.8 0.0 N 0.0 0.0
05:00 2.1 91.0 1000.8 0.0 N 0.0 0.0
05:05 2.1 91.0 1000.8 0.0 N 0.0 0.0
05:10 2.1 90.0 1000.8 0.0 N 0.0 0.0
05:15 2.0 90.0 1000.7 0.0 N 0.0 0.0
05:20 2.0 90.0 1000.8 0.0 N 0.0 0.0
05:25 2.0 90.0 1000.7 0.0 N 0.0 0.0
05:30 2.0 90.0 1000.6 0.0 N 0.0 0.0
05:35 2.1 90.0 1000.6 1.6 W 4.8 0.0
05:40 2.1 90.0 1000.5 1.6 W 6.4 0.0
05:45 2.1 90.0 1000.5 9.7 W 9.7 0.0
05:50 2.2 90.0 1000.5 11.3 W 12.9 0.0
05:55 2.3 89.0 1000.6 11.3 W 12.9 0.0
06:00 2.3 89.0 1000.8 9.7 W 17.7 0.0
06:00 2.3 89.0 1000.8 16.1 WNW 17.7 0.0
06:10 2.3 89.0 1000.6 0.0 W 16.1 0.0
06:15 2.3 88.0 1000.6 4.8 W 12.9 0.0
06:20 2.4 88.0 1000.7 4.8 WNW 12.9 0.0
06:25 2.4 88.0 1000.5 3.2 W 12.9 0.0
06:30 2.4 88.0 1000.5 1.6 W 9.7 0.0
06:35 2.4 88.0 1000.5 3.2 WNW 9.7 0.0
06:40 2.5 88.0 1000.2 12.9 W 12.9 0.0
06:45 2.5 88.0 1000.2 1.6 W 12.9 0.0
06:50 2.6 88.0 1000.2 3.2 W 11.3 0.0
06:55 2.6 88.0 1000.3 3.2 W 11.3 0.0
07:00 2.7 88.0 1000.3 6.4 W 8.0 0.0
07:05 2.6 88.0 1000.1 4.8 W 11.3 0.0
07:10 2.7 88.0 1000.2 0.0 WNW 11.3 0.0
07:15 2.7 88.0 1000.3 6.4 WNW 9.7 0.0
07:20 2.7 88.0 1000.2 4.8 W 11.3 0.0
07:25 2.7 88.0 1000.2 3.2 W 6.4 0.0
07:30 2.7 88.0 1000.3 6.4 WNW 9.7 0.0
07:35 2.8 88.0 1000.2 1.6 W 16.1 0.0
07:40 2.8 88.0 1000.1 3.2 W 16.1 0.0
07:40 2.9 88.0 1000.1 8.0 WNW 12.9 0.0
07:50 2.9 88.0 1000.2 3.2 W 12.9 0.0
07:55 2.9 88.0 1000.3 0.0 WNW 8.0 0.0
08:00 2.9 88.0 1000.3 4.8 W 8.0 0.0
08:05 3.0 88.0 1000.4 3.2 W 9.7 0.0
08:10 3.0 88.0 1000.3 3.2 N 6.4 0.0
08:15 3.0 88.0 1000.4 3.2 NNE 8.0 0.0
08:20 3.0 88.0 1000.4 3.2 NNE 8.0 0.0
08:25 3.0 88.0 1000.4 1.6 NNE 9.7 0.0
08:30 3.0 88.0 1000.4 3.2 NNE 8.0 0.0
08:35 2.9 88.0 1000.4 3.2 NE 8.0 0.0
08:40 2.9 88.0 1000.4 3.2 NE 8.0 0.0
08:45 2.8 88.0 1000.2 6.4 NE 6.4 0.0
08:50 2.9 88.0 1000.2 4.8 NE 6.4 0.0
08:55 2.9 88.0 1000.1 1.6 NE 4.8 0.0
09:00 2.9 88.0 1000.1 3.2 NE 4.8 0.0
09:05 2.9 88.0 1000.1 3.2 NE 6.4 0.0
09:10 2.9 88.0 1000.1 1.6 NE 6.4 0.0
09:15 2.9 87.0 1000.1 1.6 NE 3.2 0.0
09:20 3.0 87.0 1000.1 0.0 NE 3.2 0.0
09:25 3.1 87.0 1000.1 0.0 NE 1.6 0.0
09:30 3.2 87.0 1000.2 4.8 NE 4.8 0.0
09:35 3.3 87.0 1000.2 0.0 NE 6.4 0.0
09:40 3.4 87.0 1000.3 0.0 NE 6.4 0.0
09:45 3.4 86.0 1000.3 0.0 NE 1.6 0.0
09:50 3.6 86.0 1000.5 0.0 NE 3.2 0.0
09:55 3.7 86.0 1000.4 0.0 NE 3.2 0.0
10:00 3.7 86.0 1000.5 0.0 NE 0.0 0.0
10:05 3.8 86.0 1000.5 0.0 NE 0.0 0.0
10:10 3.9 86.0 1000.5 3.2 NE 4.8 0.0
10:15 4.0 85.0 1000.5 0.0 SE 4.8 0.0
10:20 4.1 86.0 1000.4 0.0 SE 4.8 0.0
10:25 4.2 86.0 1000.3 1.6 SE 4.8 0.0
10:30 4.2 86.0 1000.3 4.8 SE 6.4 0.0
10:35 4.2 85.0 1000.2 4.8 ENE 6.4 0.0
10:40 4.2 85.0 1000.2 3.2 NE 8.0 0.0
10:45 4.3 86.0 1000.1 8.0 NE 8.0 0.0
10:50 4.4 86.0 1000.1 3.2 NE 8.0 0.0
10:55 4.6 86.0 1000.1 3.2 NE 8.0 0.0
11:00 4.7 86.0 1000.0 3.2 NE 6.4 0.0
11:05 4.7 84.0 1000.1 0.0 NE 4.8 0.0
11:10 4.7 84.0 999.9 0.0 NE 4.8 0.0
11:15 4.8 83.0 999.8 0.0 NE 4.8 0.0
11:20 4.9 83.0 999.9 0.0 NE 0.0 0.0
11:25 5.0 83.0 999.9 0.0 NE 0.0 0.0
11:30 5.1 83.0 1000.0 0.0 NE 0.0 0.0
11:35 5.2 83.0 999.9 0.0 NE 0.0 0.0
11:40 5.2 83.0 999.9 3.2 NE 4.8 0.0
11:45 5.4 84.0 999.8 4.8 NE 4.8 0.0
11:50 5.4 83.0 999.9 3.2 NE 6.4 0.0
11:55 5.4 84.0 999.9 6.4 NE 9.7 0.0
11:55 5.4 83.0 999.9 6.4 ENE 9.7 0.0
12:00 5.5 84.0 999.9 6.4 NE 9.7 0.0
12:05 5.5 83.0 999.9 4.8 ENE 9.7 0.0
12:10 5.7 84.0 999.8 8.0 ENE 9.7 0.0
12:15 5.8 83.0 999.7 4.8 ENE 9.7 0.0
12:20 6.0 83.0 999.6 1.6 NE 11.3 0.0
12:25 6.3 81.0 999.7 3.2 N 11.3 0.0
12:30 6.7 81.0 999.6 3.2 NNE 8.0 0.0
12:35 7.1 81.0 999.7 4.8 NE 8.0 0.0
12:40 7.3 81.0 999.7 9.7 N 12.9 0.0
12:45 7.6 80.0 999.6 6.4 NNE 12.9 0.0
12:50 7.8 79.0 999.5 6.4 NE 16.1 0.0
12:55 7.7 78.0 999.4 3.2 NW 16.1 0.0
13:00 7.6 77.0 999.4 4.8 NE 12.9 0.0
13:10 7.4 77.0 999.2 1.6 NNE 11.3 0.0
13:15 7.5 78.0 999.1 3.2 NNE 9.7 0.0
13:20 7.6 77.0 998.9 8.0 ENE 12.9 0.0
13:20 7.6 77.0 998.8 11.3 ENE 14.5 0.0
13:25 7.7 78.0 999.1 6.4 NE 14.5 0.0
13:35 7.9 76.0 998.8 8.0 ENE 17.7 0.0
13:40 7.9 74.0 998.8 6.4 NNE 16.1 0.0
13:45 7.9 73.0 998.8 4.8 E 16.1 0.0
13:45 7.9 72.0 999.0 4.8 ENE 16.1 0.0
13:55 8.0 72.0 999.0 3.2 NE 8.0 0.0
14:00 8.1 73.0 998.8 3.2 E 9.7 0.0
14:05 8.1 72.0 998.5 3.2 SSE 9.7 0.0
14:10 8.1 71.0 998.4 3.2 SSE 9.7 0.0
14:15 8.2 69.0 998.4 8.0 SSE 9.7 0.0
14:20 8.2 71.0 998.6 4.8 SE 9.7 0.0
14:25 8.2 71.0 998.8 1.6 SSE 8.0 0.0
14:30 8.1 71.0 999.0 3.2 S 6.4 0.0
14:35 7.9 73.0 999.2 3.2 S 8.0 0.0
14:40 7.7 74.0 999.1 3.2 SSE 9.7 0.0
14:45 7.6 74.0 999.2 3.2 SSW 9.7 0.0
14:50 7.4 76.0 999.3 3.2 W 6.4 0.0
14:55 7.3 76.0 999.4 1.6 SW 6.4 0.0
15:00 7.3 76.0 999.5 3.2 SW 3.2 0.0
15:05 7.2 77.0 999.5 1.6 WSW 6.4 0.0
15:10 7.2 77.0 999.5 0.0 SW 4.8 0.0
15:15 7.2 77.0 999.6 0.0 WNW 3.2 0.0
15:20 7.1 77.0 999.7 0.0 W 3.2 0.2
15:25 7.0 77.0 999.8 0.0 SSW 3.2 0.0
15:30 6.9 77.0 999.8 0.0 SSW 3.2 0.0
15:35 6.8 77.0 999.9 0.0 SSW 3.2 0.0
15:40 6.8 78.0 999.8 0.0 SSW 1.6 0.0
15:45 6.7 77.0 999.8 0.0 SSW 3.2 0.0
15:50 6.6 78.0 999.9 0.0 SSW 3.2 0.0
15:55 6.6 78.0 999.9 0.0 SSW 3.2 0.0
16:00 6.4 79.0 999.8 1.6 SSW 3.2 0.0
16:05 6.3 79.0 1000.1 3.2 SSW 3.2 0.0
16:10 6.2 80.0 1000.1 0.0 SSW 3.2 0.0
16:15 6.1 80.0 1000.0 3.2 SSW 3.2 0.0
16:20 6.1 80.0 1000.2 1.6 SSW 3.2 0.0
16:25 5.9 81.0 1000.2 4.8 SSW 6.4 0.0
16:30 5.8 81.0 1000.0 0.0 SSW 6.4 0.0
16:35 5.8 81.0 1000.1 4.8 SSW 4.8 0.0
16:40 5.8 81.0 1000.3 0.0 SSW 4.8 0.0
16:45 5.7 81.0 1000.4 4.8 SSW 6.4 0.0
16:50 5.7 82.0 1000.5 3.2 SSW 6.4 0.0
16:55 5.7 82.0 1000.5 1.6 SSW 4.8 0.0
17:00 5.6 82.0 1000.4 3.2 SSW 4.8 0.0
17:05 5.6 82.0 1000.6 0.0 SSW 4.8 0.0
17:10 5.6 82.0 1000.9 0.0 SSW 4.8 0.0
17:15 5.6 82.0 1000.9 0.0 SSW 3.2 0.0
17:20 5.6 82.0 1000.8 0.0 SSW 3.2 0.0
17:25 5.6 82.0 1001.0 0.0 SSW 3.2 0.0
17:30 5.6 81.0 1000.8 0.0 SSW 3.2 0.0
17:35 5.5 82.0 1000.9 0.0 SSW 3.2 0.0
17:40 5.3 82.0 1001.0 0.0 SSW 3.2 0.0
17:45 5.3 82.0 1001.0 0.0 SSW 1.6 0.0
17:50 5.1 82.0 1000.9 0.0 SSW 0.0 0.0
17:55 4.9 83.0 1001.1 1.6 SSW 1.6 0.0
18:00 4.7 83.0 1001.1 0.0 SSW 3.2 0.0
18:05 4.6 83.0 1001.2 0.0 SSW 1.6 0.0
18:10 4.4 84.0 1001.3 0.0 SSW 0.0 0.0
18:15 4.4 84.0 1001.3 0.0 SSW 3.2 0.0
18:20 4.3 84.0 1001.3 0.0 SSW 3.2 0.0
18:25 4.3 84.0 1001.4 0.0 SSW 0.0 0.0
18:30 4.1 83.0 1001.6 0.0 SSW 0.0 0.0
18:35 3.8 83.0 1001.7 0.0 SSW 0.0 0.0
18:40 3.7 84.0 1001.7 0.0 SSW 1.6 0.0
18:45 3.6 85.0 1001.7 0.0 SSW 1.6 0.0
18:50 3.4 85.0 1001.7 0.0 SSW 1.6 0.0
18:55 3.3 85.0 1001.7 0.0 SSW 3.2 0.0
19:00 3.2 86.0 1001.7 0.0 SSW 0.0 0.0
19:05 3.0 86.0 1001.8 0.0 SSW 0.0 0.0
19:10 2.8 86.0 1001.9 0.0 SSW 3.2 0.0
19:15 2.7 86.0 1001.7 0.0 SSW 3.2 0.0
19:20 2.5 87.0 1001.8 0.0 SSW 1.6 0.0
19:25 2.4 87.0 1001.8 0.0 SSW 3.2 0.0
19:30 2.3 87.0 1002.0 0.0 SSW 3.2 0.0
19:35 2.3 88.0 1002.0 1.6 SSW 3.2 0.0
19:40 2.3 88.0 1002.0 3.2 SSW 3.2 0.0
19:45 2.3 87.0 1002.0 1.6 SE 4.8 0.0
19:50 2.1 87.0 1002.2 0.0 ESE 4.8 0.0
19:55 2.1 88.0 1002.0 0.0 ESE 3.2 0.0
20:00 2.1 88.0 1002.2 0.0 ESE 0.0 0.0
20:05 2.0 88.0 1002.3 0.0 ESE 0.0 0.0
20:10 1.8 87.0 1002.4 0.0 ESE 0.0 0.0
20:15 1.8 88.0 1002.5 1.6 ESE 3.2 0.0
20:20 1.7 88.0 1002.4 0.0 ESE 3.2 0.0
20:25 1.6 88.0 1002.6 0.0 ESE 3.2 0.0
20:30 1.4 88.0 1002.5 0.0 ESE 0.0 0.0
20:35 1.4 88.0 1002.6 0.0 ESE 0.0 0.0
20:40 1.3 88.0 1002.6 3.2 ESE 4.8 0.0
20:45 1.2 88.0 1002.6 3.2 SE 4.8 0.0
20:50 1.2 89.0 1002.8 3.2 SE 4.8 0.0
20:55 1.2 89.0 1002.8 3.2 ESE 6.4 0.0
21:00 1.1 89.0 1002.8 0.0 ESE 6.4 0.0
21:05 1.2 89.0 1002.8 1.6 ESE 1.6 0.0
21:10 1.2 89.0 1002.9 0.0 SE 4.8 0.0
21:15 1.1 89.0 1003.0 3.2 SE 4.8 0.0
21:20 1.0 89.0 1002.9 1.6 SE 4.8 0.0
Màxima 8.2 91.0 1004.3 17.7 WNW 17.7 0.2
Mínima 1.0 69.0 998.4
Total 0.4